Torna al catalogo

FENGYUN 1C DEB

AttivoPO
NORAD 32326·DEBRIS·🇨🇳 China

Lanciato May 10, 1999 da Taiyuan Satellite Launch Center

Loading…

Prossimi Passaggi (prossime 24 ore)

TLE

In scadenzaSource: Space-Track

Epoca: Sep 5, 2026, 04:32 UTC

1 32326U 99025CXT 26248.18896348  .00000313  00000-0  23567-3 0  9993
2 32326  98.4853 151.8874 0385283 147.3430 215.2188 13.69665260668292

Traccia FENGYUN 1C DEB in tempo reale con AllMySat

Download on the App Store